Sanford, FL

4:23 PM EST on February 23, 2017 (GMT -0500)
Orlando Sanford

Weather History for KSFB - October, 2011

Change the Weather History Date:

Monday, October 17, 2011

  Actual Average Record
Temperature  
Mean Temperature 75 °F -  
Max Temperature 82 °F 82 °F 89 °F (1967)
Min Temperature 68 °F 64 °F 50 °F (1977)
Cooling Degree Days 10    
Growing Degree Days 25 (Base 50)    
Moisture  
Dew Point 69 °F    
Average Humidity 85    
Maximum Humidity 96    
Minimum Humidity 67    
Precipitation  
Precipitation 0.00 in - - ()
Sea Level Pressure  
Sea Level Pressure 29.96 in    
Wind  
Wind Speed 4 mph (East)    
Max Wind Speed 12 mph    
Max Gust Speed 20 mph    
Visibility 10 miles    
Events Rain    
Averages and records for this station are not official NWS values.
T = Trace of Precipitation, MM = Missing Value Source: NWS Daily Summary

Daily Weather History Graph

Daily Weather History Graph

Search for Another Location

Airport or City:

Trip Planner

Search our weather history database for the weather conditions in past years. The results will help you decide how hot, cold, wet, or windy it might be!

Date:

Astronomy

Oct. 17, 2011 Rise Set
Actual Time 7:26 AM EDT 6:53 PM EDT
Civil Twilight 7:03 AM EDT 7:17 PM EDT
Nautical Twilight 6:35 AM EDT 7:44 PM EDT
Astronomical Twilight 6:08 AM EDT 8:12 PM EDT
Moon 10:51 PM EDT (10/17) 12:12 PM EDT (10/17)
Length of Visible Light 12h 14m
Length of Day
11h 26m
Waning Gibbous, 74% of the Moon is Illuminated
Oct 17
Waning Gibbous
Oct 19
Last Quarter
Oct 26
New
Nov 2
First Quarter
Nov 10
Full

Hourly Weather History & Observations

Time (EDT) Temp. Heat Index Dew Point Humidity Pressure Visibility Wind Dir Wind Speed Gust Speed Precip Events Conditions
12:53 AM 69.1 °F - 66.9 °F 93% 30.03 in 10.0 mi NE 4.6 mph - N/A   Clear
1:53 AM 69.1 °F - 66.9 °F 93% 30.02 in 10.0 mi Calm Calm - N/A   Clear
2:53 AM 69.1 °F - 66.9 °F 93% 30.00 in 10.0 mi Calm Calm - N/A   Clear
3:53 AM 69.8 °F - 66.2 °F 88% 29.99 in 10.0 mi NNE 3.5 mph - N/A   Clear
4:53 AM 69.1 °F - 66.9 °F 93% 29.98 in 10.0 mi Calm Calm - N/A   Clear
5:53 AM 68.0 °F - 66.2 °F 94% 29.98 in 10.0 mi NE 4.6 mph - N/A   Clear
6:53 AM 68.0 °F - 66.9 °F 96% 29.99 in 10.0 mi NE 5.8 mph - N/A   Clear
7:53 AM 69.1 °F - 66.9 °F 93% 29.99 in 10.0 mi Calm Calm - N/A   Clear
8:05 AM 69.8 °F - 66.2 °F 88% 30.00 in 10.0 mi Calm Calm - N/A   Partly Cloudy
8:53 AM 71.1 °F - 68.0 °F 90% 30.01 in 10.0 mi NE 3.5 mph - N/A   Clear
9:53 AM 75.2 °F - 69.8 °F 83% 30.02 in 10.0 mi East 4.6 mph - N/A   Clear
10:53 AM 77.0 °F - 69.1 °F 76% 30.02 in 10.0 mi ESE 4.6 mph - N/A   Clear
11:53 AM 79.0 °F - 69.1 °F 72% 30.01 in 10.0 mi East 8.1 mph - N/A   Clear
12:53 PM 81.0 °F 84.1 °F 69.1 °F 67% 29.98 in 10.0 mi East 11.5 mph - N/A   Clear
1:53 PM 81.0 °F 84.1 °F 69.1 °F 67% 29.94 in 10.0 mi East 11.5 mph - N/A   Clear
2:53 PM 81.0 °F 84.1 °F 69.1 °F 67% 29.92 in 10.0 mi East 9.2 mph - N/A   Clear
3:53 PM 82.0 °F 85.9 °F 70.0 °F 67% 29.91 in 10.0 mi East 11.5 mph - N/A   Clear
4:53 PM 78.1 °F - 72.0 °F 81% 29.89 in 10.0 mi East 5.8 mph 19.6 mph 0.00 in Rain Light Rain
5:53 PM 79.0 °F - 72.0 °F 79% 29.90 in 10.0 mi East 9.2 mph - 0.00 in   Overcast
6:53 PM 77.0 °F - 71.1 °F 82% 29.91 in 10.0 mi East 4.6 mph - N/A   Scattered Clouds
7:53 PM 75.0 °F - 71.1 °F 87% 29.91 in 10.0 mi ESE 5.8 mph - N/A   Partly Cloudy
8:53 PM 73.9 °F - 71.1 °F 91% 29.90 in 10.0 mi East 3.5 mph - N/A   Clear
9:53 PM 73.9 °F - 71.1 °F 91% 29.91 in 10.0 mi Calm Calm - N/A   Clear
10:53 PM 73.0 °F - 71.1 °F 93% 29.90 in 10.0 mi ESE 4.6 mph - N/A   Clear
11:53 PM 73.9 °F - 71.1 °F 91% 29.89 in 10.0 mi SE 5.8 mph - N/A   Scattered Clouds